Jackson, TN

8:42 PM CDT on May 22, 2018 (GMT -0500)
McKellar-Sipes Regional

Weather History for KMKL - November, 2013

Change the Weather History Date:

Tuesday, November 5, 2013

  Actual Average Record
Temperature  
Mean Temperature 60 °F 54 °F  
Max Temperature 70 °F 66 °F 81 °F (2005)
Min Temperature 49 °F 42 °F 18 °F (1991)
Degree Days  
Heating Degree Days 5 11  
Month to date heating degree days 57 53  
Since 1 July heating degree days 262 267  
Cooling Degree Days 0 0  
Month to date cooling degree days 0 2  
Year to date cooling degree days 1592 1693  
Growing Degree Days 10 (Base 50)    
Moisture  
Dew Point 44 °F    
Average Humidity 61    
Maximum Humidity 80    
Minimum Humidity 42    
Precipitation  
Precipitation 0.00 in 0.15 in 4.56 in (1948)
Month to date precipitation 0.00 0.70  
Year to date precipitation 51.74 43.72  
Snow  
Snow 0.00 in - - ()
Month to date snowfall 0.0  
Snow Depth 0.00 in    
Sea Level Pressure  
Sea Level Pressure 30.25 in    
Wind  
Wind Speed 6 mph (SSE)    
Max Wind Speed 16 mph    
Max Gust Speed 24 mph    
Visibility 10 miles    
Events      
T = Trace of Precipitation, MM = Missing Value Source: NWS Daily Summary

Daily Weather History Graph

Daily Weather History Graph

Search for Another Location

Airport or City:

Astronomy

Nov. 05, 2013 Rise Set
Actual Time 6:21 AM CST 4:56 PM CST
Civil Twilight 5:55 AM CST 5:22 PM CST
Nautical Twilight 5:24 AM CST 5:53 PM CST
Astronomical Twilight 4:54 AM CST 6:23 PM CST
Moon 8:33 AM CST (11/5) 7:00 PM CST (11/5)
Length of Visible Light 11h 27m
Length of Day
10h 34m
Waxing Crescent, 7% of the Moon is Illuminated
Nov 5
Waxing Crescent
Nov 9
First Quarter
Nov 17
Full
Nov 25
Last Quarter
Dec 2
New

Hourly Weather History & Observations

Time (CST) Temp. Dew Point Humidity Pressure Visibility Wind Dir Wind Speed Gust Speed Precip Events Conditions
12:53 AM 50.0 °F 44.1 °F 80% 30.29 in 10.0 mi Calm Calm - N/A   Clear
1:53 AM 52.0 °F 43.0 °F 71% 30.28 in 10.0 mi Calm Calm - N/A   Overcast
2:53 AM 54.0 °F 42.1 °F 64% 30.27 in 10.0 mi Variable 4.6 mph - N/A   Overcast
3:53 AM 54.0 °F 42.1 °F 64% 30.29 in 10.0 mi Calm Calm - N/A   Overcast
4:53 AM 53.1 °F 41.0 °F 64% 30.29 in 10.0 mi Calm Calm - N/A   Partly Cloudy
5:53 AM 53.1 °F 39.0 °F 59% 30.29 in 10.0 mi SE 3.5 mph - N/A   Clear
6:53 AM 52.0 °F 39.9 °F 63% 30.31 in 10.0 mi SE 3.5 mph - N/A   Clear
7:53 AM 54.0 °F 39.0 °F 57% 30.34 in 10.0 mi SSE 4.6 mph - N/A   Clear
8:53 AM 57.0 °F 39.0 °F 51% 30.34 in 10.0 mi Variable 6.9 mph - N/A   Partly Cloudy
9:53 AM 57.0 °F 39.0 °F 51% 30.33 in 10.0 mi SE 6.9 mph - N/A   Overcast
10:53 AM 64.0 °F 42.1 °F 45% 30.30 in 10.0 mi SE 10.4 mph - N/A   Mostly Cloudy
11:53 AM 68.0 °F 45.0 °F 43% 30.27 in 10.0 mi SSE 10.4 mph 19.6 mph N/A   Mostly Cloudy
12:53 PM 68.0 °F 46.0 °F 45% 30.24 in 10.0 mi SSE 8.1 mph - N/A   Scattered Clouds
1:53 PM 69.1 °F 48.0 °F 47% 30.21 in 10.0 mi SSE 11.5 mph 18.4 mph N/A   Partly Cloudy
2:53 PM 69.1 °F 48.9 °F 49% 30.19 in 10.0 mi South 6.9 mph - N/A   Clear
3:53 PM 69.1 °F 50.0 °F 51% 30.18 in 10.0 mi SSE 6.9 mph - N/A   Clear
4:53 PM 66.0 °F 48.9 °F 54% 30.18 in 10.0 mi SSE 5.8 mph - N/A   Clear
5:53 PM 62.1 °F 48.9 °F 62% 30.20 in 10.0 mi Calm Calm - N/A   Partly Cloudy
6:53 PM 62.1 °F 46.0 °F 56% 30.19 in 10.0 mi Variable 4.6 mph - N/A   Overcast
7:53 PM 60.1 °F 45.0 °F 57% 30.19 in 10.0 mi SSE 9.2 mph - N/A   Partly Cloudy
8:53 PM 60.1 °F 45.0 °F 57% 30.19 in 10.0 mi Variable 6.9 mph - N/A   Clear
9:53 PM 61.0 °F 45.0 °F 56% 30.18 in 10.0 mi SSE 9.2 mph 19.6 mph N/A   Clear
10:53 PM 61.0 °F 45.0 °F 56% 30.18 in 10.0 mi South 11.5 mph - N/A   Mostly Cloudy
11:53 PM 59.0 °F 45.0 °F 60% 30.19 in 10.0 mi South 9.2 mph - N/A   Mostly Cloudy